Weather History for Shannon, Ireland

Change the Weather History Date:

Saturday, November 6, 2010

  Actual Average Record
Temperature  
Mean Temperature 44 °F -  
Max Temperature 50 °F 50 °F 60 °F (2003)
Min Temperature 38 °F 40 °F 37 °F (2006)
Degree Days  
Heating Degree Days 21    
Moisture  
Dew Point 41 °F    
Average Humidity 90    
Maximum Humidity 100    
Minimum Humidity 76    
Precipitation  
Precipitation 0.04 in 0.13 in - ()
Sea Level Pressure  
Sea Level Pressure 30.08 in    
Wind  
Wind Speed 7 mph ()    
Max Wind Speed 18 mph    
Max Gust Speed -    
Visibility 5.2 miles    
Events Fog , Rain    
Averages and records for this station are not official NWS values.
T = Trace of Precipitation, MM = Missing Value Source: Averaged Metar Reports

Daily Weather History Graph

Daily Weather History Graph

Search for Another Location

Airport:

Trip Planner

Search our weather history database for the weather conditions in past years. The results will help you decide how hot, cold, wet, or windy it might be!

Date:

Astronomy

Nov. 06, 2010 Rise Set
Actual Time 7:41 AM GMT 4:56 PM GMT
Civil Twilight 7:04 AM GMT 5:33 PM GMT
Nautical Twilight 6:23 AM GMT 6:14 PM GMT
Astronomical Twilight 5:43 AM GMT 6:54 PM GMT
Moon 8:17 AM GMT (11/6) 4:36 PM GMT (11/6)
Length of Visible Light 10h 28m
Length of Day
9h 15m
Waxing Crescent, 0% of the Moon is Illuminated
Nov 6
Waxing Crescent
Nov 13
First Quarter
Nov 21
Full
Nov 28
Last Quarter
Dec 5
New

Hourly Weather History & Observations

Time (GMT) Temp. Windchill Dew Point Humidity Pressure Visibility Wind Dir Wind Speed Gust Speed Precip Events Conditions
12:00 AM 48 °F - 45 °F 85% 30.11 in 11 mi West 11.2 mph - -   Partly Cloudy
12:00 AM 48.2 °F - 44.6 °F 87% 30.09 in 6.2 mi West 10.4 mph - N/A   Partly Cloudy
12:30 AM 46.4 °F 41.9 °F 44.6 °F 93% 30.09 in 6.2 mi WNW 9.2 mph - N/A   Partly Cloudy
1:00 AM 46.4 °F 42.4 °F 44.6 °F 93% 30.12 in 6.2 mi WNW 8.1 mph - N/A   Mostly Cloudy
1:30 AM 46.4 °F 42.9 °F 44.6 °F 93% 30.12 in 6.2 mi WNW 6.9 mph - N/A   Mostly Cloudy
2:00 AM 44.6 °F 40.2 °F 44.6 °F 100% 30.12 in 6.2 mi WNW 8.1 mph - N/A   Partly Cloudy
2:30 AM 44.6 °F 41.4 °F 42.8 °F 93% 30.12 in 6.2 mi NNW 5.8 mph - N/A   Partly Cloudy
3:00 AM 42.8 °F 40.1 °F 42.8 °F 100% 30.12 in 6.2 mi NNW 4.6 mph - N/A   Partly Cloudy
3:30 AM 42.8 °F - 41.0 °F 93% 30.15 in 6.2 mi NW 2.3 mph - N/A   Partly Cloudy
4:00 AM 41.0 °F - 41.0 °F 100% 30.15 in 6.2 mi WNW 2.3 mph - N/A   Partly Cloudy
4:30 AM 41.0 °F 38.0 °F 39.2 °F 93% 30.15 in 4.3 mi NNW 4.6 mph - N/A Fog Fog
5:00 AM 39.2 °F 35.9 °F 39.2 °F 100% 30.15 in 1.9 mi NNW 4.6 mph - N/A Fog Fog
5:30 AM 39.2 °F 37.0 °F 39.2 °F 100% 30.15 in 1.6 mi NNW 3.5 mph - N/A Fog Fog
6:00 AM 39 °F - 38 °F 97% 30.17 in 2 mi NNE 4.5 mph - - Fog Patches of Fog
6:00 AM 39.2 °F 37.0 °F 39.2 °F 100% 30.15 in 1.6 mi Variable 3.5 mph - N/A Fog Shallow Fog
6:30 AM 39.2 °F - 37.4 °F 93% 30.15 in 0.6 mi Variable 1.2 mph - N/A Fog Fog
7:00 AM 39.2 °F 37.0 °F 37.4 °F 93% 30.15 in 0.4 mi ESE 3.5 mph - N/A Fog Fog
7:30 AM 39.2 °F - 37.4 °F 93% 30.15 in 0.2 mi Calm Calm - N/A Fog Fog
8:00 AM 39.2 °F - 37.4 °F 93% 30.15 in 0.4 mi Variable 1.2 mph - N/A Fog Fog
8:30 AM 39.2 °F - 39.2 °F 100% 30.15 in 1.2 mi NNE 2.3 mph - N/A Fog Fog
9:00 AM 42.8 °F 40.1 °F 42.8 °F 100% 30.15 in 4.3 mi SE 4.6 mph - N/A   Mostly Cloudy
9:30 AM 44.6 °F 41.4 °F 44.6 °F 100% 30.15 in 1.6 mi SE 5.8 mph - N/A Fog Fog
10:00 AM 46.4 °F 44.3 °F 44.6 °F 93% 30.15 in 3.1 mi SW 4.6 mph - N/A Rain Light Rain Showers
10:30 AM 46.4 °F 42.4 °F 46.4 °F 100% 30.12 in 4.3 mi SW 8.1 mph - N/A Rain Light Rain Showers
11:00 AM 46.4 °F 42.4 °F 44.6 °F 93% 30.12 in 6.2 mi SW 8.1 mph - N/A Rain Light Rain Showers
11:30 AM 48.2 °F - 46.4 °F 93% 30.12 in 6.2 mi WSW 9.2 mph - N/A   Mostly Cloudy
12:00 PM 50 °F - 47 °F 85% 30.11 in 5 mi SW 11.2 mph - - Rain Light Rain Showers
12:00 PM 50.0 °F - 46.4 °F 87% 30.09 in 3.7 mi SW 11.5 mph - N/A Rain Light Rain Showers
12:30 PM 48.2 °F - 44.6 °F 87% 30.09 in 6.2 mi West 8.1 mph - N/A   Mostly Cloudy
1:00 PM 46.4 °F 40.7 °F 41.0 °F 81% 30.06 in 6.2 mi West 12.7 mph - N/A   Mostly Cloudy
1:30 PM 50.0 °F - 44.6 °F 82% 30.06 in 6.2 mi West 11.5 mph - N/A   Mostly Cloudy
2:00 PM 50.0 °F - 42.8 °F 76% 30.04 in 6.2 mi West 13.8 mph - N/A   Mostly Cloudy
2:30 PM 50.0 °F - 42.8 °F 76% 30.04 in 6.2 mi West 18.4 mph - N/A   Mostly Cloudy
3:00 PM 48.2 °F - 42.8 °F 82% 30.04 in 6.2 mi NW 13.8 mph - N/A   Scattered Clouds
3:30 PM 46.4 °F 40.4 °F 41.0 °F 81% 30.04 in 6.2 mi WNW 13.8 mph - N/A   Partly Cloudy
4:00 PM 46.4 °F 42.4 °F 41.0 °F 81% 30.01 in 6.2 mi West 8.1 mph - N/A   Scattered Clouds
4:30 PM 46.4 °F 41.5 °F 41.0 °F 81% 30.01 in 6.2 mi WNW 10.4 mph - N/A   Scattered Clouds
5:00 PM 46.4 °F 41.5 °F 41.0 °F 81% 30.01 in 6.2 mi WNW 10.4 mph - N/A   Partly Cloudy
5:30 PM 44.6 °F 38.8 °F 41.0 °F 87% 30.01 in 6.2 mi WNW 11.5 mph - N/A   Scattered Clouds
6:00 PM 44 °F - 40 °F 82% 30.03 in 12 mi WNW 8.9 mph - - Rain Light Rain Showers
6:00 PM 44.6 °F 39.7 °F 41.0 °F 87% 30.01 in 6.2 mi WNW 9.2 mph - N/A   Partly Cloudy
6:30 PM 44.6 °F 38.8 °F 39.2 °F 81% 30.01 in 6.2 mi WNW 11.5 mph - N/A   Mostly Cloudy
7:00 PM 42.8 °F 37.0 °F 39.2 °F 87% 30.01 in 6.2 mi WNW 10.4 mph - N/A   Mostly Cloudy
7:30 PM 42.8 °F 38.0 °F 39.2 °F 87% 30.01 in 6.2 mi WNW 8.1 mph - N/A   Mostly Cloudy
8:00 PM 42.8 °F 38.6 °F 39.2 °F 87% 30.01 in 6.2 mi WNW 6.9 mph - N/A   Mostly Cloudy
8:30 PM 42.8 °F 38.0 °F 39.2 °F 87% 30.01 in 6.2 mi NW 8.1 mph - N/A   Partly Cloudy
9:00 PM 42.8 °F 38.6 °F 39.2 °F 87% 30.01 in 6.2 mi West 6.9 mph - N/A   Partly Cloudy
9:30 PM 41.0 °F 35.8 °F 39.2 °F 93% 30.01 in 6.2 mi West 8.1 mph - N/A   Partly Cloudy
10:00 PM 42.8 °F 37.5 °F 39.2 °F 87% 30.01 in 6.2 mi West 9.2 mph - N/A   Partly Cloudy
10:30 PM 42.8 °F 37.5 °F 39.2 °F 87% 30.01 in 6.2 mi West 9.2 mph - N/A   Partly Cloudy
11:00 PM 42.8 °F 39.3 °F 39.2 °F 87% 29.98 in 6.2 mi West 5.8 mph - N/A   Partly Cloudy
11:30 PM 42.8 °F 38.6 °F 39.2 °F 87% 30.01 in 6.2 mi WNW 6.9 mph - N/A   Scattered Clouds